Regional Weather Roundup
Issued by NWS

Home | Current Version | Previous Version | Graphics & Text | Print | Product List | Glossary On
Versions: 1 2 3 4 5 6 7 8 9 10 11 12 13 14 15 16 17 18 19 20 21 22 23 24 25 26 27 28 29 30 31 32 33 34 35 36 37 38 39 40 41 42 43 44 45 46 47 48 49 50
000
ASUS43 KMKX 260100
RWRWI

WISCONSIN REGIONAL WEATHER ROUNDUP
NATIONAL WEATHER SERVICE MILWAUKEE/SULLIVAN WI
700 PM CST SAT FEB 25 2017

NOTE: "FAIR" INDICATES FEW OR NO CLOUDS BELOW 12,000 FEET WITH NO
SIGNIFICANT WEATHER AND/OR OBSTRUCTIONS TO VISIBILITY.

WIZ001-002-006>008-014>016-023>028-260200-
NORTHWEST WISCONSIN

CITY           SKY/WX    TMP DP  RH WIND       PRES   REMARKS
SUPERIOR ARPT  CLOUDY    28  16  60 SW8       29.78F WCI  20
ASHLAND        CLEAR     22  12  65 SW8       29.79F WCI  12
HAYWARD        MOCLDY    27  11  51 SW7       29.79F WCI  19
SIREN          CLOUDY    29  16  57 SW5       29.82F WCI  24
CUMBERLAND     CLOUDY    28  16  59 SW13      29.82S WCI  18
RICE LAKE      CLOUDY    27  15  60 CALM      29.85S
CHETEK         MOCLDY    24  13  61 SW3       29.85S
LADYSMITH      PTCLDY    24  10  56 SW6       29.84S WCI  17
EAU CLAIRE     NOT AVBL
MENOMONIE      CLOUDY    27  16  63 S12G18    29.88S WCI  17
NEW RICHMOND   CLOUDY    30  17  59 SW9       29.85F WCI  22
OSCEOLA        CLOUDY    31  19  61 S9        29.87F WCI  23
$$

WIZ003>005-009-010-017-018-260200-
NORTH CENTRAL WISCONSIN

CITY           SKY/WX    TMP DP  RH WIND       PRES   REMARKS
MANITOWISH WTR PTCLDY     8   8 100 CALM      29.76R
ARBOR VITAE    CLEAR     17  11  79 SW3         N/A
WOODRUFF       CLEAR     17  11  79 SW3         N/A
RHINELANDER    CLEAR     15   5  64 W6        29.79R WCI   6
EAGLE RIVER    CLEAR     15   8  73 CALM      29.76R
LAND O LAKES   CLEAR     17  11  77 W3        29.77R
PHILLIPS       CLEAR     20   9  62 SW5       29.79S WCI  13
TOMAHAWK       CLEAR     20   8  60 CALM      29.81R
MEDFORD        CLEAR     19   6  58 SW5       29.83S WCI  12
MERRILL        NOT AVBL
$$

WIZ029-030-035-036-043>047-260200-
CENTRAL WISCONSIN

CITY           SKY/WX    TMP DP  RH WIND       PRES   REMARKS
WAUSAU         CLEAR     21   7  54 W15       29.85R WCI   8
MOSINEE        CLEAR     18   9  68 W8        29.87R WCI   7
MARSHFIELD     CLEAR     18   6  59 SW7       29.86S WCI   9
STEVENS POINT  CLEAR     20   7  56 W9        29.89R WCI  10
WAUPACA        PTCLDY    19   8  62 SW5       29.91R WCI  13
WAUTOMA        PTCLDY    16   9  74 W8        29.93R WCI   5
WISC RAPIDS    CLEAR     21   9  59 W7        29.91R WCI  12
CAMP DOUGLAS   NOT AVBL
$$

WIZ011>013-019>022-031-037>040-048>050-260200-
NORTHEAST WISCONSIN

CITY           SKY/WX    TMP DP  RH WIND       PRES   REMARKS
ANTIGO         CLEAR     18   6  59 W7        29.81R WCI   8
SHAWANO        PTCLDY    21   9  59 SW6       29.88R WCI  14
OCONTO         CLEAR     19   9  65 SW7       29.87R WCI   9
STURGEON BAY   CLEAR     18  11  74 W12       29.87R WCI   5
GREEN BAY      CLEAR     19  10  68 SW7       29.89R WCI  10
MANITOWOC      NOT AVBL
APPLETON       PTCLDY    18   5  57 W9        29.88R WCI   6
CLINTONVILLE   CLEAR     19   7  58 SW6       29.88R WCI  11
OSHKOSH        CLEAR     19   9  65 W6        29.91R WCI  11
$$

WIZ032>034-041-042-053>061-260200-
SOUTHWEST WISCONSIN

CITY           SKY/WX    TMP DP  RH WIND       PRES   REMARKS
LA CROSSE      CLEAR     24  12  60 SW10      29.97R WCI  14
SPARTA         CLEAR     22  11  63 CALM      29.95S
VIROQUA        CLEAR     20  12  70 W9        29.93S WCI   9
BOSCOBEL       CLEAR     25  12  58 SW6       30.00R WCI  18
PRAIRIE DU CHI CLEAR     24  12  60 W5        30.01R WCI  18
PLATTEVILLE    CLEAR     22  15  75 W6        29.99R WCI  14
$$

WIZ056-057-062-063-064-067-068-260200-
SOUTH CENTRAL WISCONSIN

CITY           SKY/WX    TMP DP  RH WIND       PRES   REMARKS
REEDSBURG      CLEAR     22  11  64 W7        29.95R WCI  13
BARABOO/DELLS  CLEAR     20  10  66 W3        29.94R
LONE ROCK      NOT AVBL
MINERAL POINT  CLEAR     23  19  86 W3        29.96R
MADISON        MOCLDY    21  13  71 CALM      29.96R
MIDDLETON      CLEAR     20  15  79 W5        29.96R WCI  14
WATERTOWN      CLEAR     20  13  73 W3        29.94R
MONROE         CLEAR     23  14  68 W13       29.96R WCI  11
JANESVILLE     CLEAR     25  14  63 W7        29.97R WCI  17
$$

WIZ051-052-058>065-066-070>072-260200-
SOUTHEAST WISCONSIN

CITY           SKY/WX    TMP DP  RH WIND       PRES   REMARKS
MILWAUKEE      PTCLDY    24  11  57 W9G17     29.94R WCI  14
WAUKESHA       CLEAR     19  10  68 W9G16     29.95R WCI   9
MILWAUKEE/TIMM CLEAR     21  10  63 W12       29.95R WCI   9
RACINE         PTCLDY    23  12  62 W5        29.97R WCI  17
KENOSHA        PTCLDY    22  13  68 W7        29.96R WCI  13
FOND DU LAC    CLEAR     19   9  65 SW5       29.92R WCI  12
SHEBOYGAN      PTCLDY    19  10  68 W10       29.91R WCI   7
WEST BEND      CLEAR     19  14  79 W3        29.92R
JUNEAU         CLEAR     19  11  71 SW3       29.94R
$$

LSZ147-162-260200-
LAKE SUPERIOR

STATION/POSITION TIME  TEMP    WIND        PRES    WAVE
                       AIR SEA DIR/SP/G            HT/PER
                 (UTC) (F)     (DEG/KT/KT) (MB)    (FT/S)
DEVILS ISLAND    0000   27     260/ 22/ 26 1009.4S
PORT WING        0040   25     190/  5/  6 1008.8F
SAXON HARBOR     0040   20     200/  2/  2 1009.1S
$$

LMZ867-665-643>646-260200-
LAKE MICHIGAN

STATION/POSITION TIME  TEMP    WIND        PRES    WAVE
                       AIR SEA DIR/SP/G            HT/PER
                 (UTC) (F)     (DEG/KT/KT) (MB)    (FT/S)
NORTHPORT PIER   0040   23     290/  2/  2 1010.5R
SISTER BAY       0005   21        CALM       N/A
KEWAUNEE LAKESHO 0030   20     270/ 12/ 14 1011.5R
SHEBOYGAN LAKESH 0000   22     270/ 14/ 18 1013.3R
PORT WASHINGTON  0030   22     270/  7/ 13 1014.6R
MILWAUKEE LAKESH 0030   24     290/ 11/ 16   N/A
KENOSHA   LAKESH 0000   24     290/  7/ 12 1014.6
$$

TC  - TEMPERATURE IN CELSIUS
VSB - VISIBILITY IN STATUTE MILES
WCI - WIND CHILL INDEX
HX  - HEAT INDEX




USA.gov is the U.S. government's official web portal to all federal, state and local government web resources and services.